Regional Weather Roundup
Issued by NWS Little Rock, AR

Home | Current Version | Previous Version | Graphics & Text | Print | Product List | Glossary On
Versions: 1 2 3 4 5 6 7 8 9 10 11 12 13 14 15 16 17 18 19 20 21 22 23 24 25 26 27 28 29 30 31 32 33 34 35 36 37 38 39 40 41 42 43 44 45 46 47 48 49 50
000
ASUS44 KLZK 012205
RWRLZK

WEATHER ROUNDUP FOR ARKANSAS
NATIONAL WEATHER SERVICE LITTLE ROCK AR
500 PM CDT SAT AUG 01 2015

NOTE: "FAIR" INDICATES FEW OR NO CLOUDS BELOW 12,000 FEET WITH NO
SIGNIFICANT WEATHER AND/OR OBSTRUCTIONS TO VISIBILITY.

ARZ001-003-010-029-012300-
NORTHWEST ARKANSAS

CITY           SKY/WX    TMP DP  RH WIND       PRES   REMARKS
FAYETTEVILLE   SUNNY     87  67  51 W5        30.03F HX  90
FORT SMITH     SUNNY     95  58  28 N7        29.97F HX  94
HARRISON       SUNNY     91  62  37 W5        30.04S HX  91
BENTONVILLE    MOSUNNY   90  64  43 W6        30.04F HX  91
ROGERS         MOSUNNY   87  67  51 NW6       30.04F HX  90
SILOAM SPGS    PTSUNNY   90  66  45 W7          N/A  HX  92
HIGHFILL       MOSUNNY   90  69  50 NW6       30.03F HX  94
SPRINGDALE     MOSUNNY   90  64  43 W9        30.05F HX  91
$$

ARZ004-005-016-012300-
NORTH CENTRAL ARKANSAS

CITY           SKY/WX    TMP DP  RH WIND       PRES   REMARKS
BATESVILLE     SUNNY     91  68  46 W5        29.99S HX  95
FLIPPIN        SUNNY     93  61  33 NE6       30.00S HX  93
MTN HOME       SUNNY     91  61  36 CALM      30.01F HX  91
$$

ARZ040-041-012300-
WEST CENTRAL ARKANSAS

CITY           SKY/WX    TMP DP  RH WIND       PRES   REMARKS
MENA           SUNNY     97  46  17 NE7       30.01F HX  93
MOUNT IDA      SUNNY     96  56  26 VRB3      29.97F HX  94
$$

ARZ009-017-025-026-028-012300-
NORTHEAST ARKANSAS

CITY           SKY/WX    TMP DP  RH WIND       PRES   REMARKS
JONESBORO      SUNNY     91  63  39 NW6       29.98S HX  92
NEWPORT        SUNNY     93  65  39 CALM      29.99S HX  95
WALNUT RIDGE   SUNNY     91  63  38 NW5       29.97S HX  92
BLYTHEVILLE    SUNNY     92  72  51 N6        29.98S HX  99
$$

ARZ022-023-033-042-044-012300-
CENTRAL ARKANSAS

CITY           SKY/WX    TMP DP  RH WIND       PRES   REMARKS
LITTLE ROCK    PTSUNNY   95  61  32 SE8       29.97F HX  95
N LITTLE ROCK  PTSUNNY   95  64  35 E10       29.97F HX  96
JACKSONVILLE   SUNNY     97  61  30 S10       29.97S HX  97
SEARCY         SUNNY     95  58  28 NE6       29.98F HX  94
HOT SPRINGS    SUNNY     97  54  23 NE7       29.97F HX  95
RUSSELLVILLE   SUNNY     96  56  26 SW3       29.96F HX  94
CLINTON        FAIR      93  66  40 N3        30.00S HX  96
$$

ARZ036-012300-
EAST ARKANSAS

CITY           SKY/WX    TMP DP  RH WIND       PRES   REMARKS
WEST MEMPHIS   SUNNY     94  65  38 N9        29.96S HX  96
$$

ARZ050-053-066-070-073-012300-
SOUTHWEST ARKANSAS

CITY           SKY/WX    TMP DP  RH WIND       PRES   REMARKS
ARKADELPHIA    FAIR      98  59  27 VRB6      29.96F HX  97
CAMDEN         SUNNY     95  57  28 N6        29.96F HX  94
TEXARKANA      SUNNY     94  58  29 E3        29.98F HX  93
EL DORADO        N/A     95  56  26 NE5       29.96F HX  93
DE QUEEN       SUNNY     94  60  32 VRB3      29.96F HX  94
$$

ARZ056-057-069-012300-
SOUTHEAST ARKANSAS

CITY           SKY/WX    TMP DP  RH WIND       PRES   REMARKS
PINE BLUFF     SUNNY     94  62  34 E8        29.98S HX  94
STUTTGART      SUNNY     95  64  36 MISG      29.98S HX  97
MONTICELLO     SUNNY     95  58  28 E9        29.97F HX  94

$$





USA.gov is the U.S. government's official web portal to all federal, state and local government web resources and services.